User: anonymous   Login
Location: Mercogliano
(40.9167°N, 14.7333°E)
Time: 13:53:41
(UTC+00:00)
Language:

H-2A R/B - Orbit

View from above orbital plane
View from above orbital plane
View from above satellite
View from above satellite

Ground track
Ground track

The orbit data is extracted from the following two-line orbital elements,

1 27601U 02056E   20339.61920753  .00000098  00000-0  49835-4 0  9999
2 27601  98.2088   6.4885 0073100 130.1918  28.6704 14.31988217939044
Epoch (UTC): 04 December 2020 14:51:39
Eccentricity: 0.0073100
inclination: 98.2088°
perigee height: 733 km
apogee height: 837 km
right ascension of ascending node: 6.4885°
argument of perigee: 130.1918°
revolutions per day: 14.31988217
mean anomaly at epoch: 28.6704°
orbit number at epoch: 93904

The dashed part of the orbit path shows where the satellite is in the earth's shadow,  

DLR